Tracking 19795 objects as of 18-Jul-2019
HD Live streaming from Space Station
objects crossing your sky now

NOAA 16 DEB

Track NOAA 16 DEB now!
10-day predictions


NORAD ID: 42397
Int'l Code: 2000-055SR
Perigee: 815.3 km
Apogee: 890.8 km
Inclination: 98.8 °
Period: 101.8 minutes
Semi major axis: 7224 km
RCS: Unknown
Launch date: September 21, 2000
Source: United States (US)
Launch site: AIR FORCE WESTERN TEST RANGE (AFWTR)

Note: This is SATELLITE DEBRIS
aabbcc
Your satellite tracking list
Your tracking list is empty




NASA's NSSDC Master Catalog

Two Line Element Set (TLE):
1 42397U 00055SR  19197.03991098 +.00000441 +00000-0 +25194-3 0  9994
2 42397 098.8162 266.3944 0052224 041.4184 319.0929 14.13948588174121
Source of the keplerian elements: AFSPC